Other Public Products
Issued by NWS Charleston, SC

Current Version | Previous Version | Text Only | Print | Product List | Glossary Off
Versions: 1 2 3 4 5 6 7 8 9 10 11 12 13 14 15 16 17 18 19 20 21 22 23 24 25 26 27 28 29 30 31 32 33 34 35 36 37 38 39 40 41 42 43 44 45 46 47 48 49 50
000 FPUS82 KCHS 231627 OPUCHS TEST...KCHS/KSAV Gateway Observations...TEST National Weather Service Charleston SC 1100 AM EST THU NOV 23 2017 NOTE: "fair" indicates few or no clouds below 12,000 feet with no significant weather and/or obstructions to visibility. SCZ050-WAZ558-NCZ071-TXZ119-213-PAZ071-DCZ001-FLZ074-172-MI076- NYZ176-178-MAZ016-IL014-TNZ027-NJZ106-GAZ044-MD014-231700- ...Gateway Observations for Charleston International... CITY SKY/WX TMP DP RH WIND PRES REMARKS Chas Airport LGT RAIN 48 46 93 NE8 30.07F Seattle LGT RAIN 54 52 93 S10 29.82S FOG Charlotte MOSUNNY 48 28 46 NE6 30.15F Dallas DFW MOSUNNY 53 27 36 S8 30.18S Dallas Love MOSUNNY 51 27 39 SW5 30.20F Philladelphia MOSUNNY 37 18 46 NW9 30.14F WCI 30 Wash National MOSUNNY 41 24 51 VRB7 30.18F Baltimore MOSUNNY 39 23 52 CALM 30.15F Miami PTSUNNY 81 72 74 SE13G22 29.89F Detroit CLOUDY 34 25 69 S10 30.09F WCI 26 Newark MOSUNNY 40 20 44 NW7 30.10F WCI 35 Laguardia MOSUNNY 39 21 48 NW9 30.10F WCI 33 J F K MOSUNNY 39 21 48 N10 30.11F WCI 32 Boston Logan MOSUNNY 37 18 46 W13 30.01F WCI 29 Ft. Lauderdale PTSUNNY 80 72 76 S13G18 29.90S Chicago O`Hare MOSUNNY 40 21 46 SW12 29.99F WCI 33 Chicago Midway MOSUNNY 40 23 50 SW13 30.01F WCI 32 Houston Bush MOSUNNY 53 37 54 CALM 30.22S Houston Hobby MOSUNNY 54 37 52 E6 30.21S Nashville SUNNY 42 28 57 E3 30.17F Atlanta MOSUNNY 53 34 48 NE9 30.08F $$ GAZ044-118-TXZ119-213-NCZ071-DCZ001-MDZ014-506-PAZ021-071-NJZ106- NYZ176-178-MAZ106-OHZ011-021-055-MIZ076-KYZ091-ILZ014-INZ047- MNZ060-ONZ431-231700- ...Gateway Observations for Savannah International... CITY SKY/WX TMP DP RH WIND PRES REMARKS Savannah Arpt RAIN 49 48 97 N6 30.05F Atlanta MOSUNNY 53 34 48 NE9 30.08F Charlotte MOSUNNY 48 28 46 NE6 30.15F Dallas DFW MOSUNNY 53 27 36 S8 30.18S Houston Bush MOSUNNY 53 37 54 CALM 30.22S Wash National MOSUNNY 41 24 51 VRB7 30.18F Wash Dulles MOSUNNY 39 22 50 N5 30.17F WCI 36 Baltimore MOSUNNY 39 23 52 CALM 30.15F Philadelphia MOSUNNY 37 18 46 NW9 30.14F WCI 30 Newark MOSUNNY 40 20 44 NW7 30.10F WCI 35 Laguardia MOSUNNY 39 21 48 NW9 30.10F WCI 33 J F K MOSUNNY 39 21 48 N10 30.11F WCI 32 Boston MOSUNNY 37 18 46 W13 30.01F WCI 29 Pittsburg PTSUNNY 33 21 61 W5 30.13S WCI 29 Akron PTSUNNY 34 22 61 VRB6 30.12F WCI 29 Cleveland PTSUNNY 36 24 62 S9 30.14F WCI 29 Cincinnati MOSUNNY 37 28 70 S8 30.13F WCI 31 Columbus SUNNY 34 27 74 SW3 30.15S Detroit CLOUDY 34 25 69 S10 30.09F WCI 26 Chicago O`Hare MOSUNNY 40 21 46 SW12 29.99F WCI 33 Minneapolis MOSUNNY 33 21 61 NW3 29.95R Indianapolis CLOUDY 37 25 61 SW8 30.11F WCI 31 Toronto Canada CLOUDY 36 21 55 SW13 30.02F WCI 27 $$

USA.gov is the U.S. government's official web portal to all federal, state and local government web resources and services.